TimeAKDT,TemperatureF,Dew PointF,Humidity,Sea Level PressureIn,VisibilityMPH,Wind Direction,Wind SpeedMPH,Gust SpeedMPH,PrecipitationIn,Events,Conditions,WindDirDegrees,DateUTC
12:53 AM,-18.0,-22.0,82,30.45,10.0,ENE,8.1,-,N/A,,Clear,60,2013-04-06 08:53:00
1:53 AM,-20.0,-24.0,82,30.45,10.0,ENE,6.9,-,N/A,,Clear,70,2013-04-06 09:53:00
2:53 AM,-22.0,-26.0,82,30.43,10.0,ENE,5.8,-,N/A,,Clear,70,2013-04-06 10:53:00
3:53 AM,-20.9,-27.0,73,30.42,10.0,Calm,Calm,-,N/A,,Clear,0,2013-04-06 11:53:00
4:53 AM,-24.0,-29.9,74,30.41,10.0,NNE,3.5,-,N/A,,Clear,20,2013-04-06 12:53:00
5:53 AM,-27.9,-34.1,73,30.39,10.0,Calm,Calm,-,N/A,,Clear,0,2013-04-06 13:53:00
6:53 AM,-36.0,-9999,N/A,30.38,10.0,WSW,6.9,-,N/A,,Clear,240,2013-04-06 14:53:00
7:53 AM,-35.0,-9999,N/A,30.36,10.0,WSW,8.1,-,N/A,,Clear,240,2013-04-06 15:53:00
8:53 AM,-34.1,-9999,N/A,30.35,10.0,WSW,5.8,-,N/A,,Clear,240,2013-04-06 16:53:00
9:53 AM,-33.0,-9999,N/A,30.34,10.0,SW,4.6,-,N/A,,Clear,230,2013-04-06 17:53:00
10:53 AM,-31.0,-9999,N/A,30.33,10.0,SW,6.9,-,N/A,,Clear,230,2013-04-06 18:53:00
11:53 AM,-29.0,-34.1,77,30.32,10.0,WSW,6.9,-,N/A,,Clear,240,2013-04-06 19:53:00
12:53 PM,-27.0,-32.1,77,30.32,10.0,WSW,5.8,-,N/A,,Clear,240,2013-04-06 20:53:00
1:53 PM,-25.1,-31.0,74,30.30,10.0,WSW,5.8,-,N/A,,Partly Cloudy,240,2013-04-06 21:53:00
2:53 PM,-24.0,-29.0,77,30.29,10.0,WSW,4.6,-,N/A,,Mostly Cloudy,240,2013-04-06 22:53:00
3:17 PM,-23.8,-27.4,83,30.27,10.0,WSW,4.6,-,N/A,,Scattered Clouds,250,2013-04-06 23:17:00
3:53 PM,-23.1,-27.9,78,30.27,10.0,WSW,4.6,-,N/A,,Clear,250,2013-04-06 23:53:00
4:35 PM,-22.0,-27.4,76,30.25,10.0,SW,4.6,-,N/A,,Partly Cloudy,230,2013-04-07 00:35:00
4:53 PM,-22.0,-27.9,74,30.26,10.0,SW,3.5,-,N/A,,Clear,230,2013-04-07 00:53:00
5:53 PM,-22.0,-27.9,74,30.25,10.0,Calm,Calm,-,N/A,,Clear,0,2013-04-07 01:53:00
6:53 PM,-22.0,-27.0,77,30.25,10.0,Calm,Calm,-,N/A,,Clear,0,2013-04-07 02:53:00
7:53 PM,-23.1,-29.0,74,30.23,10.0,Calm,Calm,-,N/A,,Clear,0,2013-04-07 03:53:00
8:53 PM,-24.0,-29.9,74,30.23,10.0,Calm,Calm,-,N/A,,Clear,0,2013-04-07 04:53:00
9:53 PM,-26.0,-29.9,81,30.22,10.0,South,3.5,-,N/A,,Clear,170,2013-04-07 05:53:00
10:53 PM,-29.0,-35.0,73,30.21,10.0,South,3.5,-,N/A,,Clear,180,2013-04-07 06:53:00
11:53 PM,-27.9,-34.1,73,30.20,10.0,Calm,Calm,-,N/A,,Clear,0,2013-04-07 07:53:00